CW4115 Weather Reports


time (UTC)temp
C
wind
direction
speed
KPH
gust
KPH
rain 1hr
cm
rain 24hr
cm
rain mn
cm
humidity
%
barometer
mb
20260505233335 16 232 1.6 8.0 0.00 0.00 0.00 68 1013.4
20260505230324 16 327 1.6 4.8 0.00 0.00 0.00 68 1013.4
20260505223328 16 285 1.6 4.8 0.00 0.00 0.00 69 1013.6
20260505220337 16 32 4.8 8.0 0.00 0.00 0.00 69 1013.7
20260505213340 16 32 4.8 11.3 0.00 0.00 0.00 70 1014.0
20260505210324 16 355 0.0 3.2 0.00 0.00 0.00 69 1013.8
20260505203329 16 273 1.6 3.2 0.00 0.00 0.00 70 1013.9
20260505200344 16 255 1.6 8.0 0.00 0.00 0.00 71 1014.1
20260505193318 15 261 1.6 6.4 0.00 0.00 0.00 72 1014.2
20260505190336 15 235 6.4 8.0 0.00 0.00 0.00 71 1014.1
20260505183338 14 333 0.0 6.4 0.00 0.00 0.00 72 1014.1
20260505180346 14 360 3.2 8.0 0.00 0.00 0.00 72 1014.1
20260505173328 14 360 1.6 4.8 0.00 0.00 0.00 70 1013.6
20260505170323 14 360 4.8 6.4 0.00 0.00 0.00 70 1013.6
20260505163328 13 134 0.0 4.8 0.00 0.00 0.00 72 1013.3
20260505160323 13 360 0.0 0.0 0.00 0.00 0.00 73 1013.4
20260505153326 13 360 3.2 4.8 0.00 0.00 0.00 74 1013.1
20260505150318 12 360 0.0 4.8 0.00 0.00 0.00 75 1013.0
20260505140334 12 360 0.0 0.0 0.00 0.00 0.00 77 1012.6
20260505123335 12 360 0.0 0.0 0.00 0.00 0.00 79 1012.6
20260505120352 11 360 0.0 0.0 0.00 0.00 0.00 79 1012.6
20260505113330 12 360 0.0 0.0 0.00 0.00 0.00 79 1012.6
20260505110322 12 360 0.0 0.0 0.00 0.00 0.00 77 1012.6
20260505100324 12 360 0.0 1.6 0.00 0.00 0.00 75 1012.7
20260505093328 12 261 0.0 3.2 0.00 0.00 0.00 73 1013.0
20260505090324 12 360 1.6 9.7 0.00 0.00 0.00 70 1013.1
20260505083321 12 360 1.6 4.8 0.00 0.00 0.00 69 1013.5
20260505080329 12 360 3.2 9.7 0.00 0.00 0.00 69 1013.6
20260505073327 13 360 0.0 6.4 0.00 0.00 0.00 72 1013.5
20260505070323 12 360 0.0 1.6 0.00 0.00 0.00 77 1013.1
20260505063329 13 360 0.0 3.2 0.00 0.00 0.00 78 1013.1
20260505060329 13 360 0.0 4.8 0.00 0.00 0.00 77 1013.0
20260505053334 13 360 1.6 6.4 0.00 0.00 0.00 75 1013.3
20260505050329 13 360 1.6 4.8 0.00 0.00 0.00 74 1013.5
20260505040341 14 360 3.2 6.4 0.00 0.00 0.00 71 1012.8
20260505033319 15 360 0.0 8.0 0.00 0.00 0.00 68 1012.3
20260505030340 15 281 0.0 8.0 0.00 0.00 0.00 65 1012.3
20260505023320 15 360 1.6 6.4 0.00 0.00 0.00 61 1012.5
20260505020341 16 328 4.8 14.5 0.00 0.00 0.00 60 1012.1
20260505013318 16 320 3.2 12.9 0.00 0.00 0.00 60 1012.2
20260505010318 17 5 4.8 11.3 0.00 0.00 0.00 62 1012.5
20260505003340 17 355 3.2 8.0 0.00 0.00 0.00 62 1012.5
20260505000355 16 270 4.8 9.7 0.00 0.00 0.00 65 1012.5